contact:dominique.lefevre@mio.osupytheas.fr, maurice.libes@osupytheas.fr, didier.mallarino@osupytheas.fr
Project:EMSO http://www.emso-fr.org/EMSO-France
Depth: 2436.0 m
Title:EMSO Ligure Ouest : Data MII capteur MICROCAT
DateTime_Computer,Latitude,Longitude,Temperature,Conductivity,Pressure,DateTime_Instrument
DateTime_Computer,Latitude,Longitude,degC,S m-1,dbar,DateTime_Instrument
2022-01-31T00:00:11Z,42.805,6.029,13.2996,4.60022,2469.643,2022-1-31T02:01:44Z
2022-01-31T00:03:15Z,42.805,6.029,13.3000,4.60023,2469.634,2022-1-31T02:04:47Z
2022-01-31T00:06:18Z,42.805,6.029,13.2996,4.60027,2469.61,2022-1-31T02:07:50Z
2022-01-31T00:09:21Z,42.805,6.029,13.2996,4.60023,2469.61,2022-1-31T02:10:53Z
2022-01-31T00:12:24Z,42.805,6.029,13.2998,4.60021,2469.597,2022-1-31T02:13:56Z
2022-01-31T00:15:27Z,42.805,6.029,13.2997,4.60022,2469.62,2022-1-31T02:16:59Z
2022-01-31T00:18:30Z,42.805,6.029,13.2998,4.60022,2469.643,2022-1-31T02:20:02Z
2022-01-31T00:21:33Z,42.805,6.029,13.2993,4.60022,2469.634,2022-1-31T02:23:06Z
2022-01-31T00:24:36Z,42.805,6.029,13.2996,4.60022,2469.597,2022-1-31T02:26:09Z
2022-01-31T00:27:40Z,42.805,6.029,13.3001,4.60021,2469.62,2022-1-31T02:29:12Z
2022-01-31T00:30:43Z,42.805,6.029,13.3000,4.60024,2469.597,2022-1-31T02:32:15Z
2022-01-31T00:33:46Z,42.805,6.029,13.3000,4.60027,2469.597,2022-1-31T02:35:18Z
2022-01-31T00:36:49Z,42.805,6.029,13.2996,4.60023,2469.62,2022-1-31T02:38:21Z
2022-01-31T00:39:52Z,42.805,6.029,13.2997,4.60022,2469.62,2022-1-31T02:41:24Z
2022-01-31T00:42:55Z,42.805,6.029,13.2997,4.60021,2469.597,2022-1-31T02:44:27Z
2022-01-31T00:45:58Z,42.805,6.029,13.2998,4.60021,2469.573,2022-1-31T02:47:31Z
2022-01-31T00:49:01Z,42.805,6.029,13.3000,4.60024,2469.573,2022-1-31T02:50:34Z
2022-01-31T00:52:05Z,42.805,6.029,13.2996,4.60023,2469.62,2022-1-31T02:53:37Z
2022-01-31T00:55:08Z,42.805,6.029,13.3000,4.60022,2469.597,2022-1-31T02:56:40Z
2022-01-31T00:58:11Z,42.805,6.029,13.2998,4.60021,2469.587,2022-1-31T02:59:43Z
2022-01-31T01:01:14Z,42.805,6.029,13.2997,4.60026,2469.597,2022-1-31T03:02:46Z
2022-01-31T01:04:17Z,42.805,6.029,13.2995,4.60021,2469.61,2022-1-31T03:05:49Z
2022-01-31T01:07:20Z,42.805,6.029,13.3007,4.60021,2469.597,2022-1-31T03:08:52Z
2022-01-31T01:10:23Z,42.805,6.029,13.2996,4.60022,2469.597,2022-1-31T03:11:56Z
2022-01-31T01:13:26Z,42.805,6.029,13.3000,4.60026,2469.606,2022-1-31T03:14:59Z
2022-01-31T01:16:30Z,42.805,6.029,13.3002,4.60022,2469.62,2022-1-31T03:18:02Z
2022-01-31T01:19:33Z,42.805,6.029,13.2996,4.60021,2469.597,2022-1-31T03:21:05Z
2022-01-31T01:22:36Z,42.805,6.029,13.2996,4.60021,2469.62,2022-1-31T03:24:08Z
2022-01-31T01:25:39Z,42.805,6.029,13.2999,4.60024,2469.573,2022-1-31T03:27:11Z
2022-01-31T01:28:42Z,42.805,6.029,13.2998,4.60022,2469.597,2022-1-31T03:30:14Z
2022-01-31T01:31:45Z,42.805,6.029,13.2999,4.60022,2469.597,2022-1-31T03:33:17Z
2022-01-31T01:34:48Z,42.805,6.029,13.2998,4.60022,2469.62,2022-1-31T03:36:21Z
2022-01-31T01:37:51Z,42.805,6.029,13.2999,4.60023,2469.573,2022-1-31T03:39:24Z
2022-01-31T01:40:55Z,42.805,6.029,13.3000,4.60022,2469.61,2022-1-31T03:42:27Z
2022-01-31T01:43:58Z,42.805,6.029,13.2996,4.60026,2469.583,2022-1-31T03:45:30Z
2022-01-31T01:47:01Z,42.805,6.029,13.2996,4.60021,2469.62,2022-1-31T03:48:33Z
2022-01-31T01:50:04Z,42.805,6.029,13.3000,4.60021,2469.62,2022-1-31T03:51:36Z
2022-01-31T01:53:07Z,42.805,6.029,13.3000,4.60022,2469.634,2022-1-31T03:54:39Z
2022-01-31T01:56:10Z,42.805,6.029,13.2998,4.60021,2469.62,2022-1-31T03:57:42Z
2022-01-31T01:59:13Z,42.805,6.029,13.2997,4.60023,2469.62,2022-1-31T04:00:46Z
2022-01-31T02:02:16Z,42.805,6.029,13.2998,4.60022,2469.573,2022-1-31T04:03:49Z
2022-01-31T02:05:20Z,42.805,6.029,13.2998,4.60022,2469.597,2022-1-31T04:06:52Z
2022-01-31T02:08:23Z,42.805,6.029,13.2996,4.60021,2469.634,2022-1-31T04:09:55Z
2022-01-31T02:11:26Z,42.805,6.029,13.2997,4.60021,2469.597,2022-1-31T04:12:58Z
2022-01-31T02:14:29Z,42.805,6.029,13.2995,4.60021,2469.62,2022-1-31T04:16:01Z
2022-01-31T02:17:32Z,42.805,6.029,13.2997,4.60021,2469.61,2022-1-31T04:19:04Z
2022-01-31T02:20:35Z,42.805,6.029,13.2995,4.60021,2469.62,2022-1-31T04:22:07Z
2022-01-31T02:23:38Z,42.805,6.029,13.2998,4.60021,2469.597,2022-1-31T04:25:11Z
2022-01-31T02:26:41Z,42.805,6.029,13.2998,4.60022,2469.61,2022-1-31T04:28:14Z
2022-01-31T02:29:44Z,42.805,6.029,13.2995,4.60021,2469.634,2022-1-31T04:31:17Z
2022-01-31T02:32:48Z,42.805,6.029,13.2996,4.60021,2469.597,2022-1-31T04:34:20Z
2022-01-31T02:35:51Z,42.805,6.029,13.3000,4.60023,2469.597,2022-1-31T04:37:23Z
2022-01-31T02:38:54Z,42.805,6.029,13.2998,4.60021,2469.597,2022-1-31T04:40:26Z
2022-01-31T02:41:57Z,42.805,6.029,13.2997,4.60024,2469.597,2022-1-31T04:43:29Z
2022-01-31T02:45:00Z,42.805,6.029,13.2996,4.60021,2469.643,2022-1-31T04:46:32Z
2022-01-31T02:48:03Z,42.805,6.029,13.3000,4.60024,2469.62,2022-1-31T04:49:36Z
2022-01-31T02:51:06Z,42.805,6.029,13.2996,4.60021,2469.62,2022-1-31T04:52:39Z
2022-01-31T02:54:09Z,42.805,6.029,13.2999,4.60021,2469.643,2022-1-31T04:55:42Z
2022-01-31T02:57:13Z,42.805,6.029,13.2996,4.60021,2469.643,2022-1-31T04:58:45Z
2022-01-31T03:00:16Z,42.805,6.029,13.2997,4.60021,2469.62,2022-1-31T05:01:48Z
2022-01-31T03:03:19Z,42.805,6.029,13.2998,4.60021,2469.62,2022-1-31T05:04:51Z
2022-01-31T03:06:22Z,42.805,6.029,13.2998,4.60021,2469.657,2022-1-31T05:07:54Z
2022-01-31T03:09:25Z,42.805,6.029,13.2998,4.60024,2469.62,2022-1-31T05:10:57Z
2022-01-31T03:12:28Z,42.805,6.029,13.2995,4.60024,2469.62,2022-1-31T05:14:00Z
2022-01-31T03:15:31Z,42.805,6.029,13.2998,4.60022,2469.634,2022-1-31T05:17:04Z
2022-01-31T03:18:34Z,42.805,6.029,13.2998,4.60021,2469.657,2022-1-31T05:20:07Z
2022-01-31T03:21:38Z,42.805,6.029,13.2997,4.60021,2469.643,2022-1-31T05:23:10Z
2022-01-31T03:24:41Z,42.805,6.029,13.3000,4.60023,2469.62,2022-1-31T05:26:13Z
2022-01-31T03:27:44Z,42.805,6.029,13.2996,4.60021,2469.657,2022-1-31T05:29:16Z
2022-01-31T03:30:47Z,42.805,6.029,13.2998,4.60021,2469.643,2022-1-31T05:32:19Z
2022-01-31T03:33:50Z,42.805,6.029,13.2995,4.60024,2469.68,2022-1-31T05:35:22Z
2022-01-31T03:36:53Z,42.805,6.029,13.2998,4.60022,2469.643,2022-1-31T05:38:25Z
2022-01-31T03:39:56Z,42.805,6.029,13.2993,4.60024,2469.62,2022-1-31T05:41:29Z
2022-01-31T03:42:59Z,42.805,6.029,13.2999,4.60021,2469.643,2022-1-31T05:44:32Z
2022-01-31T03:46:03Z,42.805,6.029,13.2997,4.60022,2469.667,2022-1-31T05:47:35Z
2022-01-31T03:49:06Z,42.805,6.029,13.2998,4.60021,2469.643,2022-1-31T05:50:38Z
2022-01-31T03:52:09Z,42.805,6.029,13.3000,4.60024,2469.68,2022-1-31T05:53:41Z
2022-01-31T03:55:12Z,42.805,6.029,13.2998,4.60023,2469.657,2022-1-31T05:56:44Z
2022-01-31T03:58:15Z,42.805,6.029,13.2998,4.60022,2469.667,2022-1-31T05:59:47Z
2022-01-31T04:01:18Z,42.805,6.029,13.2996,4.60021,2469.68,2022-1-31T06:02:50Z
2022-01-31T04:04:21Z,42.805,6.029,13.3000,4.60021,2469.68,2022-1-31T06:05:54Z
2022-01-31T04:07:24Z,42.805,6.029,13.2999,4.60022,2469.68,2022-1-31T06:08:57Z
2022-01-31T04:10:28Z,42.805,6.029,13.2996,4.60026,2469.727,2022-1-31T06:12:00Z
2022-01-31T04:13:31Z,42.805,6.029,13.2995,4.60025,2469.667,2022-1-31T06:15:03Z
2022-01-31T04:16:34Z,42.805,6.029,13.2999,4.60022,2469.667,2022-1-31T06:18:06Z
2022-01-31T04:19:37Z,42.805,6.029,13.2999,4.60022,2469.68,2022-1-31T06:21:09Z
2022-01-31T04:22:40Z,42.805,6.029,13.2997,4.60022,2469.69,2022-1-31T06:24:12Z
2022-01-31T04:25:43Z,42.805,6.029,13.2998,4.60023,2469.69,2022-1-31T06:27:15Z
2022-01-31T04:28:46Z,42.805,6.029,13.2999,4.60024,2469.69,2022-1-31T06:30:19Z
2022-01-31T04:31:49Z,42.805,6.029,13.2996,4.60023,2469.667,2022-1-31T06:33:22Z
2022-01-31T04:34:52Z,42.805,6.029,13.3002,4.60024,2469.643,2022-1-31T06:36:25Z
2022-01-31T04:37:56Z,42.805,6.029,13.2996,4.60023,2469.667,2022-1-31T06:39:28Z
2022-01-31T04:40:59Z,42.805,6.029,13.3003,4.60022,2469.69,2022-1-31T06:42:31Z
2022-01-31T04:44:02Z,42.805,6.029,13.2996,4.60024,2469.69,2022-1-31T06:45:34Z
2022-01-31T04:47:05Z,42.805,6.029,13.2998,4.60023,2469.667,2022-1-31T06:48:37Z
2022-01-31T04:50:08Z,42.805,6.029,13.2999,4.60023,2469.68,2022-1-31T06:51:40Z
2022-01-31T04:53:11Z,42.805,6.029,13.2998,4.60023,2469.667,2022-1-31T06:54:44Z
2022-01-31T04:56:14Z,42.805,6.029,13.2998,4.60024,2469.667,2022-1-31T06:57:47Z
2022-01-31T04:59:17Z,42.805,6.029,13.2998,4.60023,2469.68,2022-1-31T07:00:50Z
2022-01-31T05:02:21Z,42.805,6.029,13.3000,4.60023,2469.657,2022-1-31T07:03:53Z
2022-01-31T05:05:24Z,42.805,6.029,13.2997,4.60026,2469.704,2022-1-31T07:06:56Z
2022-01-31T05:08:27Z,42.805,6.029,13.2999,4.60024,2469.643,2022-1-31T07:09:59Z
2022-01-31T05:11:30Z,42.805,6.029,13.2999,4.60024,2469.667,2022-1-31T07:13:02Z
2022-01-31T05:14:33Z,42.805,6.029,13.2999,4.60024,2469.68,2022-1-31T07:16:05Z
2022-01-31T05:17:36Z,42.805,6.029,13.3000,4.60024,2469.667,2022-1-31T07:19:09Z
2022-01-31T05:20:39Z,42.805,6.029,13.3001,4.60024,2469.68,2022-1-31T07:22:12Z
2022-01-31T05:23:42Z,42.805,6.029,13.3001,4.60024,2469.667,2022-1-31T07:25:15Z
2022-01-31T05:26:46Z,42.805,6.029,13.2998,4.60026,2469.657,2022-1-31T07:28:18Z
2022-01-31T05:29:49Z,42.805,6.029,13.2996,4.60024,2469.657,2022-1-31T07:31:21Z
2022-01-31T05:32:52Z,42.805,6.029,13.3000,4.60024,2469.69,2022-1-31T07:34:24Z
2022-01-31T05:35:55Z,42.805,6.029,13.3001,4.60025,2469.667,2022-1-31T07:37:27Z
2022-01-31T05:38:58Z,42.805,6.029,13.3002,4.60024,2469.657,2022-1-31T07:40:30Z
2022-01-31T05:42:01Z,42.805,6.029,13.2999,4.60024,2469.704,2022-1-31T07:43:33Z
2022-01-31T05:45:04Z,42.805,6.029,13.2998,4.60024,2469.69,2022-1-31T07:46:37Z
2022-01-31T05:48:07Z,42.805,6.029,13.2998,4.60024,2469.657,2022-1-31T07:49:40Z
2022-01-31T05:51:11Z,42.805,6.029,13.2998,4.60024,2469.667,2022-1-31T07:52:43Z
2022-01-31T05:54:14Z,42.805,6.029,13.2995,4.60023,2469.657,2022-1-31T07:55:46Z
2022-01-31T05:57:17Z,42.805,6.029,13.2997,4.60024,2469.643,2022-1-31T07:58:49Z
2022-01-31T06:00:20Z,42.805,6.029,13.2997,4.60024,2469.643,2022-1-31T08:01:52Z
2022-01-31T06:03:23Z,42.805,6.029,13.3000,4.60025,2469.667,2022-1-31T08:04:55Z
2022-01-31T06:06:26Z,42.805,6.029,13.3000,4.60025,2469.68,2022-1-31T08:07:58Z
2022-01-31T06:09:29Z,42.805,6.029,13.2998,4.60025,2469.667,2022-1-31T08:11:02Z
2022-01-31T06:12:32Z,42.805,6.029,13.3001,4.60025,2469.657,2022-1-31T08:14:05Z
2022-01-31T06:15:36Z,42.805,6.029,13.3002,4.60024,2469.68,2022-1-31T08:17:08Z
2022-01-31T06:18:39Z,42.805,6.029,13.2999,4.60024,2469.657,2022-1-31T08:20:11Z
2022-01-31T06:21:42Z,42.805,6.029,13.3000,4.60024,2469.657,2022-1-31T08:23:14Z
2022-01-31T06:24:45Z,42.805,6.029,13.3000,4.60025,2469.667,2022-1-31T08:26:17Z
2022-01-31T06:27:48Z,42.805,6.029,13.3000,4.60024,2469.62,2022-1-31T08:29:20Z
2022-01-31T06:30:51Z,42.805,6.029,13.2997,4.60024,2469.643,2022-1-31T08:32:23Z
2022-01-31T06:33:54Z,42.805,6.029,13.3000,4.60024,2469.643,2022-1-31T08:35:27Z
2022-01-31T06:36:57Z,42.805,6.029,13.3003,4.60026,2469.62,2022-1-31T08:38:30Z
2022-01-31T06:40:01Z,42.805,6.029,13.2998,4.60024,2469.667,2022-1-31T08:41:33Z
2022-01-31T06:43:04Z,42.805,6.029,13.3000,4.60024,2469.667,2022-1-31T08:44:36Z
2022-01-31T06:46:07Z,42.805,6.029,13.2999,4.60024,2469.643,2022-1-31T08:47:39Z
2022-01-31T06:49:10Z,42.805,6.029,13.2998,4.60025,2469.643,2022-1-31T08:50:42Z
2022-01-31T06:52:13Z,42.805,6.029,13.2999,4.60024,2469.62,2022-1-31T08:53:45Z
2022-01-31T06:55:16Z,42.805,6.029,13.3004,4.60024,2469.667,2022-1-31T08:56:48Z
2022-01-31T06:58:19Z,42.805,6.029,13.2998,4.60024,2469.643,2022-1-31T08:59:52Z
2022-01-31T07:01:22Z,42.805,6.029,13.2999,4.60024,2469.643,2022-1-31T09:02:55Z
2022-01-31T07:04:26Z,42.805,6.029,13.3000,4.60025,2469.634,2022-1-31T09:05:58Z
2022-01-31T07:07:29Z,42.805,6.029,13.2997,4.60026,2469.667,2022-1-31T09:09:01Z
2022-01-31T07:10:32Z,42.805,6.029,13.2998,4.60025,2469.657,2022-1-31T09:12:04Z
2022-01-31T07:13:35Z,42.805,6.029,13.2998,4.60024,2469.634,2022-1-31T09:15:07Z
2022-01-31T07:16:38Z,42.805,6.029,13.2998,4.60026,2469.62,2022-1-31T09:18:10Z
2022-01-31T07:19:41Z,42.805,6.029,13.3002,4.60025,2469.667,2022-1-31T09:21:13Z
2022-01-31T07:22:44Z,42.805,6.029,13.3000,4.60025,2469.62,2022-1-31T09:24:17Z
2022-01-31T07:25:47Z,42.805,6.029,13.2998,4.60025,2469.597,2022-1-31T09:27:20Z
2022-01-31T07:28:50Z,42.805,6.029,13.2998,4.60025,2469.597,2022-1-31T09:30:23Z
2022-01-31T07:31:54Z,42.805,6.029,13.2999,4.60025,2469.657,2022-1-31T09:33:26Z
2022-01-31T07:34:57Z,42.805,6.029,13.2997,4.60025,2469.61,2022-1-31T09:36:29Z
2022-01-31T07:38:00Z,42.805,6.029,13.2997,4.60025,2469.643,2022-1-31T09:39:32Z
2022-01-31T07:41:03Z,42.805,6.029,13.3001,4.60025,2469.62,2022-1-31T09:42:35Z
2022-01-31T07:44:06Z,42.805,6.029,13.2998,4.60025,2469.61,2022-1-31T09:45:38Z
2022-01-31T07:47:09Z,42.805,6.029,13.2998,4.60026,2469.62,2022-1-31T09:48:42Z
2022-01-31T07:50:12Z,42.805,6.029,13.3000,4.60025,2469.573,2022-1-31T09:51:45Z
2022-01-31T07:53:16Z,42.805,6.029,13.3000,4.60025,2469.597,2022-1-31T09:54:48Z
2022-01-31T07:56:19Z,42.805,6.029,13.2998,4.60027,2469.657,2022-1-31T09:57:51Z
2022-01-31T07:59:22Z,42.805,6.029,13.2997,4.60026,2469.62,2022-1-31T10:00:54Z
2022-01-31T08:02:25Z,42.805,6.029,13.2998,4.60025,2469.573,2022-1-31T10:03:57Z
2022-01-31T08:05:28Z,42.805,6.029,13.3000,4.60025,2469.597,2022-1-31T10:07:00Z
2022-01-31T08:08:31Z,42.805,6.029,13.2997,4.60027,2469.61,2022-1-31T10:10:03Z
2022-01-31T08:11:34Z,42.805,6.029,13.2997,4.60026,2469.62,2022-1-31T10:13:07Z
2022-01-31T08:14:37Z,42.805,6.029,13.3000,4.60026,2469.597,2022-1-31T10:16:10Z
2022-01-31T08:17:41Z,42.805,6.029,13.3000,4.60026,2469.62,2022-1-31T10:19:13Z
2022-01-31T08:20:44Z,42.805,6.029,13.2998,4.60025,2469.597,2022-1-31T10:22:16Z
2022-01-31T08:23:47Z,42.805,6.029,13.2997,4.60026,2469.62,2022-1-31T10:25:19Z
2022-01-31T08:26:50Z,42.805,6.029,13.3000,4.60025,2469.573,2022-1-31T10:28:22Z
2022-01-31T08:29:53Z,42.805,6.029,13.2998,4.60026,2469.597,2022-1-31T10:31:25Z
2022-01-31T08:32:56Z,42.805,6.029,13.2998,4.60025,2469.62,2022-1-31T10:34:28Z
2022-01-31T08:35:59Z,42.805,6.029,13.3001,4.60026,2469.62,2022-1-31T10:37:32Z
2022-01-31T08:39:02Z,42.805,6.029,13.2998,4.60026,2469.597,2022-1-31T10:40:35Z
2022-01-31T08:42:06Z,42.805,6.029,13.3002,4.60026,2469.597,2022-1-31T10:43:38Z
2022-01-31T08:45:09Z,42.805,6.029,13.3000,4.60026,2469.61,2022-1-31T10:46:41Z
2022-01-31T08:48:12Z,42.805,6.029,13.3000,4.60026,2469.597,2022-1-31T10:49:44Z
2022-01-31T08:51:15Z,42.805,6.029,13.3000,4.60026,2469.573,2022-1-31T10:52:47Z
2022-01-31T08:54:18Z,42.805,6.029,13.3000,4.60026,2469.61,2022-1-31T10:55:50Z
2022-01-31T08:57:21Z,42.805,6.029,13.3000,4.60028,2469.573,2022-1-31T10:58:54Z
2022-01-31T09:00:24Z,42.805,6.029,13.3005,4.60028,2469.573,2022-1-31T11:01:57Z
2022-01-31T09:03:27Z,42.805,6.029,13.3001,4.60027,2469.573,2022-1-31T11:05:00Z
2022-01-31T09:06:31Z,42.805,6.029,13.2998,4.60027,2469.573,2022-1-31T11:08:03Z
2022-01-31T09:09:34Z,42.805,6.029,13.3000,4.60031,2469.55,2022-1-31T11:11:06Z
2022-01-31T09:12:37Z,42.805,6.029,13.3001,4.60026,2469.597,2022-1-31T11:14:09Z
2022-01-31T09:15:40Z,42.805,6.029,13.3003,4.60029,2469.573,2022-1-31T11:17:12Z
2022-01-31T09:18:43Z,42.805,6.029,13.3001,4.60028,2469.587,2022-1-31T11:20:15Z
2022-01-31T09:21:46Z,42.805,6.029,13.3004,4.60029,2469.55,2022-1-31T11:23:19Z
2022-01-31T09:24:49Z,42.805,6.029,13.2999,4.60028,2469.587,2022-1-31T11:26:22Z
2022-01-31T09:27:53Z,42.805,6.029,13.3001,4.60029,2469.526,2022-1-31T11:29:25Z
2022-01-31T09:30:56Z,42.805,6.029,13.3002,4.60028,2469.55,2022-1-31T11:32:28Z
2022-01-31T09:33:59Z,42.805,6.029,13.3000,4.60027,2469.563,2022-1-31T11:35:31Z
2022-01-31T09:37:02Z,42.805,6.029,13.3003,4.60026,2469.55,2022-1-31T11:38:34Z
2022-01-31T09:40:05Z,42.805,6.029,13.3002,4.60027,2469.55,2022-1-31T11:41:37Z
2022-01-31T09:43:08Z,42.805,6.029,13.2997,4.60028,2469.526,2022-1-31T11:44:40Z
2022-01-31T09:46:11Z,42.805,6.029,13.3002,4.60026,2469.526,2022-1-31T11:47:44Z
2022-01-31T09:49:14Z,42.805,6.029,13.3000,4.60029,2469.54,2022-1-31T11:50:47Z
2022-01-31T09:52:18Z,42.805,6.029,13.3001,4.60029,2469.526,2022-1-31T11:53:50Z
2022-01-31T09:55:21Z,42.805,6.029,13.3003,4.60029,2469.503,2022-1-31T11:56:53Z
2022-01-31T09:58:24Z,42.805,6.029,13.3003,4.60027,2469.517,2022-1-31T11:59:56Z
2022-01-31T10:01:27Z,42.805,6.029,13.3001,4.60028,2469.503,2022-1-31T12:02:59Z
2022-01-31T10:04:30Z,42.805,6.029,13.3005,4.60027,2469.517,2022-1-31T12:06:02Z
2022-01-31T10:07:33Z,42.805,6.029,13.2999,4.60026,2469.503,2022-1-31T12:09:05Z
2022-01-31T10:10:36Z,42.805,6.029,13.3004,4.60026,2469.48,2022-1-31T12:12:09Z
2022-01-31T10:13:39Z,42.805,6.029,13.3000,4.60027,2469.494,2022-1-31T12:15:12Z
2022-01-31T10:16:43Z,42.805,6.029,13.3000,4.60026,2469.494,2022-1-31T12:18:15Z
2022-01-31T10:19:46Z,42.805,6.029,13.3006,4.60027,2469.466,2022-1-31T12:21:18Z
2022-01-31T10:22:49Z,42.805,6.029,13.3000,4.60026,2469.517,2022-1-31T12:24:21Z
2022-01-31T10:25:52Z,42.805,6.029,13.3001,4.60028,2469.517,2022-1-31T12:27:24Z
2022-01-31T10:28:55Z,42.805,6.029,13.3004,4.60027,2469.517,2022-1-31T12:30:27Z
2022-01-31T10:31:58Z,42.805,6.029,13.2996,4.60026,2469.48,2022-1-31T12:33:30Z
2022-01-31T10:35:01Z,42.805,6.029,13.3003,4.60027,2469.48,2022-1-31T12:36:34Z
2022-01-31T10:38:04Z,42.805,6.029,13.3004,4.60027,2469.494,2022-1-31T12:39:37Z
2022-01-31T10:41:08Z,42.805,6.029,13.3000,4.60027,2469.433,2022-1-31T12:42:40Z
2022-01-31T10:44:11Z,42.805,6.029,13.2999,4.60027,2469.517,2022-1-31T12:45:43Z
2022-01-31T10:47:14Z,42.805,6.029,13.3004,4.60027,2469.517,2022-1-31T12:48:46Z
2022-01-31T10:50:17Z,42.805,6.029,13.3005,4.60026,2469.47,2022-1-31T12:51:49Z
2022-01-31T10:53:20Z,42.805,6.029,13.2998,4.60026,2469.48,2022-1-31T12:54:52Z
2022-01-31T10:56:23Z,42.805,6.029,13.3000,4.60027,2469.526,2022-1-31T12:57:56Z
2022-01-31T10:59:26Z,42.805,6.029,13.3000,4.60028,2469.503,2022-1-31T13:00:59Z
2022-01-31T11:02:29Z,42.805,6.029,13.3007,4.60026,2469.517,2022-1-31T13:04:02Z
2022-01-31T11:05:33Z,42.805,6.029,13.2999,4.60027,2469.494,2022-1-31T13:07:05Z
2022-01-31T11:08:36Z,42.805,6.029,13.3003,4.60026,2469.494,2022-1-31T13:10:08Z
2022-01-31T11:11:39Z,42.805,6.029,13.3003,4.60026,2469.48,2022-1-31T13:13:11Z
2022-01-31T11:14:42Z,42.805,6.029,13.3002,4.60027,2469.48,2022-1-31T13:16:14Z
2022-01-31T11:17:45Z,42.805,6.029,13.3004,4.60030,2469.48,2022-1-31T13:19:17Z
2022-01-31T11:20:48Z,42.805,6.029,13.3005,4.60029,2469.47,2022-1-31T13:22:21Z
2022-01-31T11:23:51Z,42.805,6.029,13.3004,4.60026,2469.48,2022-1-31T13:25:24Z
2022-01-31T11:26:54Z,42.805,6.029,13.3002,4.60026,2469.503,2022-1-31T13:28:27Z
2022-01-31T11:29:58Z,42.805,6.029,13.3004,4.60027,2469.48,2022-1-31T13:31:30Z
2022-01-31T11:33:01Z,42.805,6.029,13.3000,4.60028,2469.494,2022-1-31T13:34:33Z
2022-01-31T11:36:04Z,42.805,6.029,13.3000,4.60026,2469.456,2022-1-31T13:37:36Z
2022-01-31T11:39:07Z,42.805,6.029,13.3002,4.60027,2469.456,2022-1-31T13:40:39Z
2022-01-31T11:42:10Z,42.805,6.029,13.3004,4.60027,2469.503,2022-1-31T13:43:42Z
2022-01-31T11:45:13Z,42.805,6.029,13.3003,4.60029,2469.48,2022-1-31T13:46:46Z
2022-01-31T11:48:16Z,42.805,6.029,13.3003,4.60027,2469.47,2022-1-31T13:49:49Z
2022-01-31T11:51:19Z,42.805,6.029,13.3000,4.60027,2469.48,2022-1-31T13:52:52Z
2022-01-31T11:54:23Z,42.805,6.029,13.3002,4.60026,2469.456,2022-1-31T13:55:55Z
2022-01-31T11:57:26Z,42.805,6.029,13.3003,4.60026,2469.433,2022-1-31T13:58:58Z
2022-01-31T12:00:29Z,42.805,6.029,13.3000,4.60027,2469.48,2022-1-31T14:02:01Z
2022-01-31T12:03:32Z,42.805,6.029,13.2998,4.60026,2469.456,2022-1-31T14:05:04Z
2022-01-31T12:06:35Z,42.805,6.029,13.3000,4.60026,2469.456,2022-1-31T14:08:07Z
2022-01-31T12:09:38Z,42.805,6.029,13.3000,4.60028,2469.503,2022-1-31T14:11:11Z
2022-01-31T12:12:41Z,42.805,6.029,13.2999,4.60026,2469.47,2022-1-31T14:14:14Z
2022-01-31T12:15:45Z,42.805,6.029,13.2998,4.60026,2469.433,2022-1-31T14:17:17Z
2022-01-31T12:18:48Z,42.805,6.029,13.2998,4.60026,2469.447,2022-1-31T14:20:20Z
2022-01-31T12:21:51Z,42.805,6.029,13.3003,4.60027,2469.48,2022-1-31T14:23:23Z
2022-01-31T12:24:54Z,42.805,6.029,13.3002,4.60027,2469.456,2022-1-31T14:26:26Z
2022-01-31T12:27:57Z,42.805,6.029,13.3001,4.60029,2469.456,2022-1-31T14:29:29Z
2022-01-31T12:31:00Z,42.805,6.029,13.3000,4.60026,2469.494,2022-1-31T14:32:32Z
2022-01-31T12:34:03Z,42.805,6.029,13.3000,4.60026,2469.47,2022-1-31T14:35:36Z
2022-01-31T12:37:06Z,42.805,6.029,13.3000,4.60026,2469.503,2022-1-31T14:38:39Z
2022-01-31T12:40:10Z,42.805,6.029,13.3001,4.60026,2469.433,2022-1-31T14:41:42Z
2022-01-31T12:43:13Z,42.805,6.029,13.3000,4.60027,2469.456,2022-1-31T14:44:45Z
2022-01-31T12:46:16Z,42.805,6.029,13.3001,4.60028,2469.47,2022-1-31T14:47:48Z
2022-01-31T12:49:19Z,42.805,6.029,13.3003,4.60029,2469.456,2022-1-31T14:50:51Z
2022-01-31T12:52:22Z,42.805,6.029,13.3004,4.60026,2469.494,2022-1-31T14:53:54Z
2022-01-31T12:55:25Z,42.805,6.029,13.2997,4.60026,2469.456,2022-1-31T14:56:58Z
2022-01-31T12:58:28Z,42.805,6.029,13.3000,4.60026,2469.433,2022-1-31T15:00:01Z
2022-01-31T13:01:31Z,42.805,6.029,13.3001,4.60027,2469.47,2022-1-31T15:03:04Z
2022-01-31T13:04:35Z,42.805,6.029,13.3002,4.60027,2469.456,2022-1-31T15:06:07Z
2022-01-31T13:07:38Z,42.805,6.029,13.2999,4.60028,2469.456,2022-1-31T15:09:10Z
2022-01-31T13:10:41Z,42.805,6.029,13.3000,4.60028,2469.48,2022-1-31T15:12:13Z
2022-01-31T13:13:44Z,42.805,6.029,13.3004,4.60027,2469.456,2022-1-31T15:15:16Z
2022-01-31T13:16:47Z,42.805,6.029,13.3001,4.60027,2469.47,2022-1-31T15:18:19Z
2022-01-31T13:19:50Z,42.805,6.029,13.2998,4.60026,2469.47,2022-1-31T15:21:23Z
2022-01-31T13:22:53Z,42.805,6.029,13.3001,4.60027,2469.48,2022-1-31T15:24:26Z
2022-01-31T13:25:56Z,42.805,6.029,13.2998,4.60026,2469.494,2022-1-31T15:27:29Z
2022-01-31T13:29:00Z,42.805,6.029,13.3000,4.60026,2469.48,2022-1-31T15:30:32Z
2022-01-31T13:32:03Z,42.805,6.029,13.2998,4.60027,2469.433,2022-1-31T15:33:35Z
2022-01-31T13:35:06Z,42.805,6.029,13.3000,4.60026,2469.503,2022-1-31T15:36:38Z
2022-01-31T13:38:09Z,42.805,6.029,13.3004,4.60026,2469.48,2022-1-31T15:39:41Z
2022-01-31T13:41:12Z,42.805,6.029,13.3004,4.60026,2469.48,2022-1-31T15:42:44Z
2022-01-31T13:44:15Z,42.805,6.029,13.2998,4.60027,2469.494,2022-1-31T15:45:48Z
2022-01-31T13:47:18Z,42.805,6.029,13.3003,4.60027,2469.456,2022-1-31T15:48:51Z
2022-01-31T13:50:22Z,42.805,6.029,13.2999,4.60027,2469.494,2022-1-31T15:51:54Z
2022-01-31T13:53:25Z,42.805,6.029,13.3000,4.60028,2469.433,2022-1-31T15:54:57Z
2022-01-31T13:56:28Z,42.805,6.029,13.3003,4.60027,2469.48,2022-1-31T15:58:00Z
2022-01-31T13:59:31Z,42.805,6.029,13.3001,4.60027,2469.503,2022-1-31T16:01:03Z
2022-01-31T14:02:34Z,42.805,6.029,13.3004,4.60027,2469.48,2022-1-31T16:04:06Z
2022-01-31T14:05:37Z,42.805,6.029,13.3003,4.60027,2469.517,2022-1-31T16:07:09Z
2022-01-31T14:08:40Z,42.805,6.029,13.3001,4.60027,2469.494,2022-1-31T16:10:13Z
2022-01-31T14:11:43Z,42.805,6.029,13.3002,4.60027,2469.48,2022-1-31T16:13:16Z
2022-01-31T14:14:47Z,42.805,6.029,13.3000,4.60026,2469.494,2022-1-31T16:16:19Z
2022-01-31T14:17:50Z,42.805,6.029,13.2998,4.60027,2469.48,2022-1-31T16:19:22Z
2022-01-31T14:20:53Z,42.805,6.029,13.3004,4.60031,2469.517,2022-1-31T16:22:25Z
2022-01-31T14:23:56Z,42.805,6.029,13.3006,4.60028,2469.503,2022-1-31T16:25:28Z
2022-01-31T14:26:59Z,42.805,6.029,13.2998,4.60028,2469.526,2022-1-31T16:28:31Z
2022-01-31T14:30:02Z,42.805,6.029,13.3004,4.60027,2469.48,2022-1-31T16:31:34Z
2022-01-31T14:33:05Z,42.805,6.029,13.3000,4.60028,2469.503,2022-1-31T16:34:38Z
2022-01-31T14:36:08Z,42.805,6.029,13.2998,4.60026,2469.503,2022-1-31T16:37:41Z
2022-01-31T14:39:12Z,42.805,6.029,13.2999,4.60027,2469.517,2022-1-31T16:40:44Z
2022-01-31T14:42:15Z,42.805,6.029,13.3000,4.60027,2469.503,2022-1-31T16:43:47Z
2022-01-31T14:45:18Z,42.805,6.029,13.3004,4.60026,2469.526,2022-1-31T16:46:50Z
2022-01-31T14:48:21Z,42.805,6.029,13.2999,4.60027,2469.503,2022-1-31T16:49:53Z
2022-01-31T14:51:24Z,42.805,6.029,13.3004,4.60028,2469.563,2022-1-31T16:52:56Z
2022-01-31T14:54:27Z,42.805,6.029,13.2997,4.60028,2469.55,2022-1-31T16:55:59Z
2022-01-31T14:57:30Z,42.805,6.029,13.3000,4.60027,2469.55,2022-1-31T16:59:03Z
2022-01-31T15:00:33Z,42.805,6.029,13.3005,4.60026,2469.54,2022-1-31T17:02:06Z
2022-01-31T15:03:37Z,42.805,6.029,13.2998,4.60029,2469.526,2022-1-31T17:05:09Z
2022-01-31T15:06:40Z,42.805,6.029,13.3004,4.60028,2469.526,2022-1-31T17:08:12Z
2022-01-31T15:09:43Z,42.805,6.029,13.3001,4.60028,2469.55,2022-1-31T17:11:15Z
2022-01-31T15:12:46Z,42.805,6.029,13.3004,4.60028,2469.573,2022-1-31T17:14:18Z